This demonstration page uses our WeatherBlox Daily Observations layout. Learn more.

Left ArrowRight Arrow

Hourly Observations for December 24, 2021

Temp ( °F °C ) Dew Point ( °F °C ) Humidity (%) Winds ( mph kmh ) Pressure ( in mb ) Visibility ( mi km ) Precip ( " mm )
12:59 am 00:59 Partly Cloudy 39 3.9 32 0 76 76 S 7 11 30.18 1022 10 16 0.00 0.00
1:59 am 01:59 Clear 40 4.4 31 -0.6 70 70 SSW 7 11 30.18 1022 10 16 0.00 0.00
2:59 am 02:59 Partly Cloudy 40 4.4 32 0 73 73 SSW 8 13 30.18 1022 10 16 0.00 0.00
3:59 am 03:59 Cloudy 40 4.4 33 0.6 77 77 SSW 10 17 30.17 1022 10 16 0.00 0.00
4:59 am 04:59 Cloudy 42 5.6 32 0 68 68 SSW 14 22 30.16 1021 10 16 0.00 0.00
5:59 am 05:59 Cloudy 42 5.6 32 0 68 68 SSW 13 20 30.14 1021 10 16 0.00 0.00
6:59 am 06:59 Cloudy 43 6.1 32 0 65 65 SW 9 15 30.14 1021 10 16 0.00 0.00
7:59 am 07:59 Cloudy 44 6.7 32 0 63 63 SW 12 19 30.13 1020 10 16 0.00 0.00
8:59 am 08:59 Cloudy 47 8.3 33 0.6 59 59 SW 13 20 30.13 1020 10 16 0.00 0.00
9:59 am 09:59 Mostly Cloudy 50 10 32 0 50 50 WSW 10 17 30.14 1021 10 16 0.00 0.00
10:59 am 10:59 Mostly Cloudy 53 11.7 33 0.6 47 47 WSW 13 20 30.12 1020 10 16 0.00 0.00
11:59 am 11:59 Partly Cloudy 57 13.9 34 1.1 42 42 WSW 12 19 30.07 1018 10 16 0.00 0.00
12:59 pm 12:59 Partly Cloudy 60 15.6 34 1.1 38 38 WSW 8 13 30.06 1018 10 16 0.00 0.00
1:59 pm 13:59 Partly Cloudy 62 16.7 35 1.7 37 37 SW 7 11 30.04 1017 10 16 0.00 0.00
2:59 pm 14:59 Sunny 62 16.7 36 2.2 38 38 SW 8 13 30.02 1017 10 16 0.00 0.00
3:59 pm 15:59 Sunny 61 16.1 36 2.2 39 39 SW 7 11 30.02 1017 10 16 0.00 0.00
4:59 pm 16:59 Clear 57 13.9 36 2.2 45 45 SSW 8 13 30.03 1017 10 16 0.00 0.00
5:59 pm 17:59 Clear 55 12.8 37 2.8 51 51 SSW 7 11 30.02 1017 10 16 0.00 0.00
6:59 pm 18:59 Clear 55 12.8 37 2.8 51 51 SW 10 17 30.02 1017 10 16 0.00 0.00
7:59 pm 19:59 Clear 54 12.2 37 2.8 53 53 SSW 8 13 30.00 1016 10 16 0.00 0.00
8:59 pm 20:59 Clear 53 11.7 36 2.2 52 52 SSW 10 17 29.97 1015 10 16 0.00 0.00
9:59 pm 21:59 Clear 54 12.2 36 2.2 51 51 SW 10 17 29.96 1015 10 16 0.00 0.00
10:59 pm 22:59 Clear 55 12.8 36 2.2 49 49 SW 13 20 29.95 1014 10 16 0.00 0.00
11:59 pm 23:59 Clear 56 13.3 36 2.2 47 47 SSW 16 26 29.91 1013 10 16 0.00 0.00

Powered by AerisWeather